Wind_Speed
85 85 85 87 90 92 91 91 83 81 84 83 85 80 86 82 78 75 78 78 71 71 60 63 60 61 66 73 71 74 77 71 69 68 65 66 68 71 72 71 74 75 76 74
92 91 91 92 93 92 89 82 84 81 86 87 84 83 87 85 81 85 79 70 68 63 58 59 65 74 76 81 80 74 67 61 58 56 59 60 62 63 67 71 72 73 74 75
91 93 86 79 78 78 76 75 80 83 88 86 80 83 86 82 86 80 65 64 63 64 69 71 73 80 84 78 69 64 57 55 54 55 53 56 60 63 64 65 68 68 68 70
86 80 77 77 77 79 78 84 83 88 85 85 89 80 77 77 68 64 61 62 66 70 73 79 84 82 75 63 58 53 52 55 57 60 63 61 62 64 66 67 68 71 73 73
81 78 80 83 84 85 86 86 88 86 73 76 77 67 63 66 62 65 66 69 70 75 79 80 74 68 60 58 56 54 63 65 65 64 62 63 64 66 68 70 73 74 76 76
87 89 90 85 83 82 83 81 81 75 68 67 65 61 61 59 61 68 64 70 74 70 71 63 62 54 54 56 61 67 68 68 69 65 64 64 64 65 66 67 70 70 73 79
85 86 85 84 82 75 77 74 70 65 64 59 60 60 58 59 63 66 72 67 66 64 58 61 51 53 58 63 65 64 66 68 70 70 71 70 68 68 69 72 74 75 78 82
79 77 77 76 72 68 68 71 68 66 65 70 70 63 66 73 76 75 72 70 54 46 54 53 53 60 64 63 63 64 65 64 65 66 68 74 74 72 71 71 71 71 72 74
73 70 76 70 69 65 64 65 69 72 78 81 80 74 70 72 68 66 59 47 47 48 45 54 63 65 64 66 66 65 64 64 64 66 68 69 68 65 62 58 57 57 60 60
69 71 70 66 66 61 61 62 66 65 66 67 68 64 62 60 54 46 42 44 46 46 51 56 64 65 65 67 68 67 67 68 69 66 64 59 53 49 47 48 50 52 54 55
64 68 62 59 61 59 58 56 57 59 60 60 58 57 53 45 41 37 44 44 45 51 58 63 65 67 67 68 69 69 71 73 70 64 51 42 41 44 46 51 54 55 57 59
63 63 60 56 53 51 55 53 54 55 58 55 48 49 44 39 40 45 44 44 47 56 59 59 63 65 68 69 69 72 75 72 63 47 40 41 44 49 53 56 59 63 65 68
56 61 62 57 52 52 52 52 50 51 51 49 41 39 38 36 41 43 43 46 49 54 57 60 64 67 68 68 70 73 73 64 48 43 44 47 53 57 60 64 68 69 72 75
57 64 61 52 53 49 50 49 52 45 42 42 41 35 38 42 45 46 48 49 52 54 58 60 64 68 69 69 71 74 65 48 43 45 48 55 59 63 67 71 72 76 78 81
61 62 61 57 48 46 45 49 46 40 39 34 41 39 38 39 44 50 51 53 56 58 59 63 67 68 70 71 73 69 51 43 45 49 55 61 66 71 73 76 79 82 85 92
59 62 59 54 49 40 40 42 40 39 37 34 39 48 41 41 47 54 58 59 61 62 65 67 68 68 70 72 72 57 43 45 49 53 59 66 72 73 77 81 84 89 96 101
53 49 49 41 39 40 43 43 35 37 41 44 46 41 40 41 46 55 59 61 62 65 67 67 67 69 69 72 67 49 44 48 52 58 65 70 74 79 83 86 91 96 103 106
53 47 44 41 37 39 43 42 42 42 46 46 42 41 45 50 52 55 59 61 65 67 67 67 69 70 70 72 60 47 48 52 56 64 71 74 79 84 87 91 98 103 107 108
55 53 53 45 43 40 49 43 44 43 46 45 45 42 49 56 61 64 64 65 69 70 72 70 69 71 71 71 56 49 51 54 62 70 73 77 82 87 90 97 101 104 107 109
61 58 57 52 46 47 54 50 46 47 47 48 45 47 52 60 64 64 67 67 70 71 75 72 69 69 71 70 54 51 55 60 68 71 75 80 86 90 96 101 103 106 108 110
62 58 58 52 53 50 58 48 49 49 51 51 50 54 60 65 64 64 63 67 73 75 73 72 69 70 70 67 54 54 57 64 70 73 77 84 88 95 100 102 105 109 111 111
64 62 59 60 56 52 57 53 51 52 49 51 58 64 65 65 65 64 63 70 74 71 73 72 70 69 70 63 54 55 60 68 73 75 81 87 91 98 102 105 109 111 114 111
64 64 61 60 57 59 57 57 52 53 56 58 61 60 63 65 66 65 67 72 71 73 74 73 70 67 67 56 53 57 64 71 74 77 84 88 95 101 103 108 112 114 116 111
65 66 61 60 60 64 60 59 57 57 56 60 61 59 64 62 64 65 69 71 72 74 74 70 68 65 61 51 52 58 67 71 74 79 85 89 97 101 105 112 116 117 117 112
70 69 64 62 62 64 60 61 62 60 59 62 62 62 62 63 64 67 69 72 72 74 71 70 63 66 54 49 54 61 68 71 75 81 84 91 97 100 106 113 117 120 120 114
71 66 66 65 69 67 64 63 64 61 62 64 63 63 62 63 64 66 70 71 73 72 71 69 63 60 49 50 56 64 69 71 76 81 85 92 96 101 105 111 117 121 121 117
Wind_Direction
287 289 288 289 292 292 294 295 293 293 299 302 300 298 299 301 305 307 309 311 306 308 299 297 290 286 289 294 295 296 302 295 289 285 283 282 282 281 277 277 276 275 274 272
287 290 290 291 293 290 290 293 290 293 298 302 299 302 299 301 302 306 309 306 300 298 290 286 286 292 297 302 305 303 297 294 291 286 286 286 285 284 282 280 279 278 277 276
286 289 290 290 292 293 295 294 295 295 298 295 297 298 297 300 301 305 301 297 289 289 292 292 295 298 304 305 302 299 300 298 296 292 289 287 285 284 282 280 281 281 280 279
284 285 289 287 287 293 294 296 296 295 296 295 293 294 296 300 299 296 291 283 290 293 295 299 302 305 307 304 302 300 302 300 297 295 293 288 284 282 280 279 279 280 282 280
281 283 290 296 301 299 299 298 300 298 296 296 292 294 294 295 289 284 284 283 284 288 295 302 306 307 306 302 299 298 302 303 301 299 296 291 289 288 285 282 279 278 277 277
284 291 295 298 298 298 297 298 295 294 294 293 292 290 286 284 284 284 288 297 297 302 305 303 301 296 294 297 302 305 306 305 302 301 297 295 291 289 286 283 280 278 275 272
288 291 292 293 295 297 297 296 292 289 289 288 288 287 284 284 284 288 296 296 292 304 289 294 300 303 302 299 300 302 302 304 303 303 302 298 296 292 289 287 284 283 280 277
289 291 293 295 292 293 290 286 283 282 283 284 284 283 285 289 290 292 293 295 297 284 284 299 305 309 307 304 304 301 299 299 300 300 301 300 298 296 293 292 290 287 285 280
287 290 295 292 289 290 288 286 285 284 284 285 288 290 288 288 292 296 295 289 282 289 301 301 301 302 306 305 302 303 304 305 305 306 302 300 299 298 299 299 296 294 291 291
287 293 293 288 288 289 290 290 288 289 289 288 290 292 295 296 298 290 283 281 289 296 297 303 307 306 308 308 309 312 312 311 310 306 305 304 302 302 304 303 302 301 299 297
292 293 293 290 288 287 288 289 290 291 290 292 294 296 295 294 289 285 283 289 294 298 302 305 308 310 311 313 315 316 315 314 313 311 309 307 309 309 308 302 298 298 298 296
292 290 294 294 287 286 288 290 290 291 291 293 293 288 294 290 276 278 288 297 303 303 304 307 309 313 315 318 317 318 317 314 312 310 312 312 308 305 301 302 303 302 301 299
290 291 293 292 289 285 287 291 293 293 291 291 290 289 287 285 282 288 299 299 303 308 310 311 314 316 318 318 318 318 315 313 311 310 311 310 306 304 306 306 305 303 300 298
288 288 291 292 296 285 288 292 292 294 292 289 288 281 283 284 290 295 301 307 311 313 312 314 315 317 319 319 319 318 316 310 308 310 310 306 305 305 305 305 303 302 301 300
286 285 290 293 291 291 291 289 289 293 291 290 287 286 286 291 304 303 306 311 313 313 314 315 316 319 320 320 320 319 311 307 311 309 308 307 308 309 309 306 305 306 307 308
286 286 289 291 294 291 286 284 292 297 289 290 286 278 288 297 302 306 311 313 315 316 318 316 318 321 320 320 321 316 305 310 310 309 308 308 312 310 308 309 311 314 314 313
282 287 290 284 287 284 280 284 286 292 291 289 287 285 291 301 303 306 309 312 314 317 317 319 320 320 319 321 322 309 307 310 310 309 308 312 312 311 313 315 318 317 318 314
285 289 284 279 277 281 283 283 288 301 294 293 285 293 303 302 307 310 310 313 316 316 316 319 320 321 320 322 319 308 311 310 310 309 312 313 312 314 316 320 321 319 319 317
281 285 284 280 271 271 283 288 292 294 301 295 291 301 299 306 311 314 312 316 317 317 319 321 321 320 320 322 315 309 311 312 310 310 314 313 316 318 320 322 322 322 322 322
277 283 283 287 286 281 286 288 291 295 300 294 300 301 297 303 308 311 312 314 316 315 317 319 320 319 320 321 313 310 311 311 311 315 315 316 318 321 324 325 324 326 326 326
276 278 282 288 288 288 282 287 296 293 293 301 304 297 297 302 305 309 310 310 313 314 316 318 319 319 320 319 311 309 310 311 314 316 316 319 322 324 326 326 329 331 330 330
271 274 276 277 282 281 282 283 285 290 299 296 291 292 298 301 306 308 308 309 312 315 316 317 317 318 318 317 310 310 311 313 316 316 319 322 325 327 328 331 333 335 334 333
270 273 277 282 281 281 282 287 291 290 288 288 288 294 299 303 306 307 308 311 312 313 315 315 315 317 318 313 309 310 313 315 317 319 321 325 327 328 331 335 335 337 336 335
267 271 274 280 282 279 280 280 282 283 286 289 292 296 297 300 304 304 306 309 311 312 314 313 316 317 316 310 309 311 313 316 318 320 323 327 328 331 334 337 337 339 338 338
271 272 277 278 279 278 281 283 284 282 285 288 295 295 299 299 301 304 306 307 310 313 315 314 315 317 312 308 309 312 315 317 320 322 326 329 330 334 336 338 340 341 340 339
272 272 273 275 272 273 277 280 279 280 281 285 287 291 296 297 301 302 304 307 310 314 315 316 315 314 308 307 311 313 317 318 321 323 328 331 332 336 337 339 341 342 342 342
Height
10831 10831 10828 10827 10827 10824 10822 10816 10812 10811 10805 10809 10807 10803 10782 10786 10785 10792 10792 10784 10773 10769 10762 10754 10747 10743 10742 10740 10736 10731 10723 10714 10707 10699 10694 10690 10688 10684 10681 10678 10675 10672 10671 10668
10815 10816 10813 10814 10810 10807 10808 10808 10801 10797 10790 10791 10787 10781 10768 10768 10769 10766 10771 10766 10755 10754 10751 10746 10738 10731 10725 10721 10711 10704 10698 10690 10686 10682 10677 10673 10668 10665 10661 10658 10656 10652 10649 10646
10804 10798 10801 10801 10795 10791 10793 10792 10789 10787 10777 10774 10774 10769 10754 10755 10750 10750 10750 10746 10738 10733 10733 10729 10725 10719 10714 10705 10694 10684 10680 10676 10671 10666 10663 10658 10652 10647 10643 10639 10637 10634 10630 10626
10787 10786 10787 10788 10784 10780 10778 10771 10772 10767 10764 10758 10749 10758 10743 10741 10737 10735 10737 10729 10723 10715 10715 10710 10704 10699 10696 10687 10682 10674 10669 10664 10659 10653 10648 10643 10638 10633 10627 10622 10618 10612 10606 10603
10772 10773 10773 10770 10763 10764 10762 10757 10753 10750 10746 10744 10737 10738 10736 10727 10727 10721 10722 10717 10714 10708 10704 10695 10683 10677 10673 10668 10664 10662 10657 10647 10642 10637 10630 10622 10616 10610 10605 10600 10596 10591 10586 10582
10763 10757 10758 10758 10749 10747 10746 10743 10739 10735 10733 10728 10728 10727 10724 10722 10715 10707 10710 10703 10691 10690 10683 10677 10672 10671 10666 10661 10653 10642 10634 10628 10619 10614 10608 10600 10594 10589 10582 10576 10570 10566 10562 10556
10751 10751 10748 10742 10737 10733 10732 10728 10727 10722 10721 10717 10714 10714 10716 10713 10706 10701 10696 10693 10681 10677 10669 10663 10661 10655 10651 10648 10642 10632 10624 10616 10602 10594 10586 10579 10574 10567 10560 10553 10548 10543 10539 10533
10740 10741 10734 10727 10723 10722 10720 10716 10715 10712 10709 10706 10706 10710 10702 10699 10690 10689 10688 10678 10674 10671 10662 10655 10648 10643 10635 10632 10625 10618 10612 10604 10594 10584 10573 10557 10548 10543 10538 10532 10525 10519 10514 10510
10728 10727 10722 10713 10707 10709 10708 10707 10702 10703 10697 10692 10686 10688 10690 10682 10679 10673 10668 10665 10662 10657 10653 10645 10639 10632 10623 10613 10606 10602 10594 10585 10576 10566 10555 10543 10533 10524 10518 10511 10505 10502 10495 10490
10716 10711 10708 10700 10697 10695 10693 10693 10685 10687 10684 10678 10673 10677 10671 10665 10665 10660 10658 10655 10651 10646 10638 10632 10624 10616 10608 10596 10587 10579 10570 10561 10554 10545 10536 10526 10516 10510 10505 10500 10494 10488 10482 10476
10700 10695 10696 10693 10686 10686 10679 10679 10675 10671 10670 10669 10663 10658 10660 10656 10652 10650 10645 10647 10641 10634 10627 10619 10610 10600 10592 10581 10570 10561 10552 10541 10532 10523 10517 10510 10505 10500 10496 10489 10483 10477 10471 10464
10686 10681 10679 10681 10677 10674 10669 10667 10664 10660 10656 10658 10656 10645 10651 10651 10647 10642 10641 10637 10631 10624 10619 10609 10598 10588 10578 10567 10556 10545 10534 10525 10515 10508 10504 10498 10494 10488 10482 10476 10469 10462 10455 10446
10671 10669 10667 10667 10667 10664 10660 10655 10655 10652 10647 10645 10645 10642 10640 10643 10634 10632 10629 10625 10619 10611 10604 10595 10585 10575 10565 10556 10545 10533 10520 10509 10503 10497 10493 10487 10481 10475 10469 10461 10453 10444 10436 10426
10661 10658 10656 10656 10661 10654 10648 10646 10640 10643 10640 10637 10633 10634 10633 10632 10623 10621 10617 10612 10605 10598 10591 10583 10574 10563 10553 10543 10532 10518 10507 10498 10493 10488 10483 10476 10469 10462 10455 10446 10437 10427 10416 10404
10648 10647 10647 10646 10647 10645 10640 10633 10633 10633 10632 10631 10624 10627 10625 10618 10614 10607 10605 10601 10595 10587 10579 10569 10560 10550 10539 10527 10517 10505 10495 10488 10483 10477 10471 10464 10456 10448 10439 10428 10416 10404 10390 10374
10636 10635 10637 10635 10635 10637 10632 10623 10625 10625 10622 10622 10621 10618 10614 10609 10603 10594 10588 10584 10578 10570 10563 10555 10545 10535 10523 10514 10504 10493 10485 10479 10473 10466 10459 10451 10442 10431 10421 10408 10395 10379 10362 10342
10627 10626 10626 10624 10624 10626 10621 10620 10619 10617 10615 10614 10615 10608 10600 10601 10597 10586 10577 10570 10564 10558 10549 10540 10532 10524 10511 10501 10491 10482 10474 10468 10461 10453 10445 10436 10425 10413 10401 10387 10371 10353 10334 10312
10616 10617 10619 10615 10615 10615 10611 10610 10610 10608 10604 10607 10605 10595 10589 10585 10584 10580 10571 10563 10553 10546 10537 10529 10519 10508 10498 10488 10477 10470 10463 10456 10449 10440 10431 10421 10409 10396 10382 10365 10348 10329 10305 10279
10606 10605 10607 10608 10607 10604 10595 10600 10599 10598 10596 10593 10590 10586 10578 10571 10568 10560 10553 10548 10539 10530 10520 10514 10505 10495 10485 10475 10466 10458 10451 10444 10436 10427 10417 10405 10393 10379 10362 10345 10325 10303 10277 10249
10593 10593 10595 10594 10595 10595 10583 10588 10587 10587 10586 10580 10577 10572 10568 10564 10557 10551 10539 10530 10524 10517 10507 10502 10493 10483 10472 10462 10453 10446 10439 10432 10423 10413 10401 10388 10375 10359 10341 10321 10301 10275 10247 10220
10580 10582 10583 10582 10584 10584 10568 10582 10574 10573 10572 10568 10563 10558 10556 10555 10550 10543 10533 10522 10514 10507 10495 10487 10479 10470 10460 10449 10442 10435 10428 10419 10409 10398 10385 10372 10356 10338 10318 10297 10273 10249 10222 10192
10568 10571 10570 10572 10573 10570 10560 10567 10570 10560 10558 10555 10553 10550 10545 10539 10534 10528 10520 10512 10502 10492 10483 10475 10467 10458 10448 10437 10429 10423 10415 10406 10396 10383 10370 10354 10337 10318 10297 10273 10248 10222 10196 10168
10559 10555 10558 10558 10557 10551 10550 10549 10552 10550 10550 10546 10541 10540 10532 10526 10519 10512 10505 10497 10487 10479 10472 10462 10454 10446 10435 10426 10418 10411 10402 10393 10381 10368 10354 10339 10320 10298 10276 10253 10228 10201 10173 10145
10547 10541 10545 10545 10538 10531 10540 10539 10540 10541 10537 10530 10528 10527 10521 10516 10507 10499 10492 10484 10477 10468 10461 10451 10441 10432 10423 10415 10408 10400 10391 10380 10368 10355 10340 10324 10304 10282 10255 10231 10205 10179 10152 10127
10524 10526 10528 10531 10523 10516 10524 10524 10525 10528 10524 10517 10513 10511 10507 10501 10495 10487 10479 10471 10465 10456 10447 10437 10427 10419 10410 10405 10398 10389 10379 10367 10355 10341 10327 10310 10290 10268 10241 10215 10190 10161 10129 10103
10507 10507 10511 10514 10500 10506 10510 10514 10513 10515 10512 10507 10502 10499 10495 10487 10481 10474 10466 10458 10451 10442 10434 10425 10414 10405 10399 10393 10386 10377 10366 10355 10343 10328 10312 10296 10276 10255 10232 10208 10178 10147 10118 10087